Change the Weather History Date:

Wednesday, September 26, 2012

  Actual Average Record
Temperature  
Mean Temperature 76 °F 76 °F  
Max Temperature 88 °F 86 °F 99 °F (1921)
Min Temperature 64 °F 65 °F 49 °F (1975)
Degree Days  
Heating Degree Days 0 0  
Month to date heating degree days 0 0  
Since 1 July heating degree days 0 0  
Cooling Degree Days 11 11  
Month to date cooling degree days 359 369  
Year to date cooling degree days 2746 2530  
Growing Degree Days 26 (Base 50)    
Moisture  
Dew Point 66 °F    
Average Humidity 68    
Maximum Humidity 93    
Minimum Humidity 43    
Precipitation  
Precipitation 0.00 in 0.14 in 3.60 in (1957)
Month to date precipitation 1.31 3.97  
Year to date precipitation 45.58 45.68  
Snow  
Snow 0.00 in - - ()
Month to date snowfall 0.0  
Since 1 July snowfall 0.0  
Since 1 September snowfall 0.0  
Snow Depth 0.00 in    
Sea Level Pressure  
Sea Level Pressure 30.07 in    
Wind  
Wind Speed 5 mph (East)    
Max Wind Speed 13 mph    
Max Gust Speed 15 mph    
Visibility 10 miles    
Events      
T = Trace of Precipitation, MM = Missing Value Source: NWS Daily Summary

Daily Weather History Graph

Daily Weather History Graph

Search for Another Location

Airport or City:

Trip Planner

Search our weather history database for the weather conditions in past years. The results will help you decide how hot, cold, wet, or windy it might be!

Date:

Astronomy

Sep. 26, 2012 Rise Set
Actual Time 6:55 AM CDT 6:55 PM CDT
Civil Twilight 6:31 AM CDT 7:19 PM CDT
Nautical Twilight 6:03 AM CDT 7:47 PM CDT
Astronomical Twilight 5:35 AM CDT 8:15 PM CDT
Moon 4:45 PM CDT (9/26) 3:34 AM CDT (9/26)
Length of Visible Light 12h 47m
Length of Day
11h 59m
Waxing Gibbous, 88% of the Moon is Illuminated
Sep 26
Waxing Gibbous
Sep 29
Full
Oct 8
Last Quarter
Oct 15
New
Oct 21
First Quarter

Hourly Weather History & Observations

Time (CDT) Temp. Heat Index Dew Point Humidity Pressure Visibility Wind Dir Wind Speed Gust Speed Precip Events Conditions
12:53 AM 71.1 °F - 66.0 °F 84% 30.06 in 10.0 mi ESE 6.9 mph - N/A   Clear
1:53 AM 68.0 °F - 64.9 °F 90% 30.05 in 10.0 mi Calm Calm - N/A   Clear
2:53 AM 66.9 °F - 64.9 °F 93% 30.05 in 10.0 mi ESE 4.6 mph - N/A   Clear
3:53 AM 66.0 °F - 64.0 °F 93% 30.05 in 10.0 mi ENE 4.6 mph - N/A   Clear
4:53 AM 64.9 °F - 63.0 °F 93% 30.06 in 10.0 mi NE 3.5 mph - N/A   Clear
5:53 AM 64.9 °F - 63.0 °F 93% 30.07 in 10.0 mi ENE 3.5 mph - N/A   Clear
6:53 AM 64.4 °F - 62.6 °F 94% 30.08 in 10.0 mi NE 3.5 mph - N/A   Clear
7:53 AM 66.9 °F - 64.0 °F 90% 30.09 in 10.0 mi NE 4.6 mph - N/A   Clear
8:53 AM 72.0 °F - 66.0 °F 81% 30.10 in 10.0 mi ENE 4.6 mph - N/A   Clear
9:53 AM 78.1 °F - 68.0 °F 71% 30.12 in 10.0 mi ESE 8.1 mph - N/A   Clear
10:53 AM 82.9 °F 85.4 °F 66.9 °F 58% 30.12 in 10.0 mi SE 5.8 mph - N/A   Clear
11:53 AM 84.0 °F 86.5 °F 66.9 °F 56% 30.10 in 10.0 mi SSW 4.6 mph - N/A   Scattered Clouds
12:53 PM 84.9 °F 87.1 °F 66.0 °F 53% 30.09 in 10.0 mi South 8.1 mph - N/A   Scattered Clouds
1:53 PM 86.0 °F 87.6 °F 64.9 °F 49% 30.06 in 10.0 mi ESE 4.6 mph - N/A   Mostly Cloudy
2:53 PM 86.0 °F 87.6 °F 64.9 °F 49% 30.04 in 10.0 mi East 5.8 mph - N/A   Scattered Clouds
3:53 PM 87.1 °F 87.8 °F 63.0 °F 44% 30.04 in 10.0 mi ESE 3.5 mph - N/A   Clear
4:53 PM 87.1 °F 88.3 °F 64.0 °F 46% 30.03 in 10.0 mi East 8.1 mph - N/A   Clear
5:53 PM 84.0 °F 86.3 °F 66.0 °F 55% 30.04 in 10.0 mi East 8.1 mph - N/A   Partly Cloudy
6:53 PM 79.0 °F - 66.9 °F 66% 30.05 in 10.0 mi East 4.6 mph - N/A   Clear
7:53 PM 78.1 °F - 68.0 °F 71% 30.06 in 10.0 mi ESE 8.1 mph - N/A   Clear
8:53 PM 75.9 °F - 70.0 °F 82% 30.09 in 10.0 mi East 3.5 mph - N/A   Clear
9:53 PM 73.9 °F - 70.0 °F 87% 30.09 in 10.0 mi ENE 3.5 mph - N/A   Clear
10:53 PM 72.0 °F - 70.0 °F 93% 30.10 in 10.0 mi Calm Calm - N/A   Clear
11:53 PM 72.0 °F - 69.1 °F 91% 30.11 in 10.0 mi East 3.5 mph - N/A   Clear